VA2CPJ Weather Reports


time (UTC)temp
C
wind
direction
speed
KPH
gust
KPH
rain 1hr
cm
rain 24hr
cm
rain mn
cm
humidity
%
barometer
mb
20260506003023 13 242 4.8 9.7 0.00 0.00 0.00 94 1010.6
20260506002601 13 272 6.4 8.0 0.00 0.00 0.00 94 1011.3
20260506002526 13 269 6.4 9.7 0.00 0.00 0.00 94 1011.3
20260506002019 13 250 6.4 12.9 0.00 0.00 0.00 94 1010.2
20260506001531 13 276 6.4 11.3 0.00 0.00 0.00 94 1011.3
20260506001033 13 290 8.0 14.5 0.00 0.00 0.00 94 1010.2
20260506000804 13 243 6.4 12.9 0.00 0.00 0.00 94 1010.9
20260506000518 13 246 6.4 12.9 0.00 0.00 0.00 94 1011.3
20260506000041 13 257 8.0 11.3 0.00 0.00 0.00 93 1010.2
20260505235553 13 276 8.0 14.5 0.00 0.00 0.00 93 1011.3
20260505235034 13 295 6.4 8.0 0.00 0.00 0.00 93 1010.2
20260505234540 13 297 9.7 14.5 0.00 0.00 0.00 93 1010.9
20260505234031 14 305 9.7 16.1 0.00 0.00 0.00 92 1009.9
20260505233533 14 297 6.4 11.3 0.00 0.00 0.00 92 1010.9
20260505233525 14 288 6.4 9.7 0.00 0.00 0.00 92 1010.6
20260505233035 14 281 6.4 9.7 0.00 0.00 0.00 92 1009.9
20260505232543 14 240 8.0 12.9 0.00 0.00 0.00 92 1010.6
20260505232529 14 242 8.0 12.9 0.00 0.00 0.00 92 1010.2
20260505232043 14 226 8.0 12.9 0.00 0.00 0.00 92 1009.6
20260505231535 14 260 8.0 14.5 0.00 0.00 0.00 92 1010.2
20260505231028 14 248 9.7 19.3 0.00 0.00 0.00 92 1009.6
20260505230548 14 271 11.3 19.3 0.00 0.00 0.00 92 1010.2
20260505230522 14 273 9.7 14.5 0.00 0.00 0.00 92 1010.2
20260505230030 14 265 11.3 19.3 0.00 0.00 0.00 92 1009.2
20260505225712 14 246 6.4 11.3 0.00 0.00 0.00 92 1009.9
20260505225527 14 242 6.4 11.3 0.00 0.00 0.00 92 1010.2
20260505225020 15 223 9.7 16.1 0.00 0.00 0.00 91 1008.9
20260505224540 15 235 8.0 11.3 0.00 0.00 0.00 90 1009.9
20260505224532 15 226 9.7 19.3 0.00 0.00 0.00 90 1009.9
20260505224034 15 269 9.7 16.1 0.00 0.00 0.00 87 1008.9
20260505223545 15 263 11.3 17.7 0.00 0.00 0.00 87 1009.9
20260505223540 15 254 11.3 14.5 0.00 0.00 0.00 87 1009.6
20260505223042 15 241 12.9 20.9 0.00 0.00 0.00 86 1008.5
20260505222525 15 240 11.3 16.1 0.00 0.00 0.00 85 1009.6
20260505222104 15 243 9.7 14.5 0.00 0.00 0.00 84 1008.5
20260505221616 15 295 9.7 12.9 0.00 0.00 0.00 83 1009.2
20260505221521 15 281 11.3 20.9 0.00 0.00 0.00 83 1009.2
20260505221045 15 287 9.7 12.9 0.00 0.00 0.00 82 1008.2
20260505220614 16 279 11.3 16.1 0.00 0.00 0.00 81 1009.2
20260505220534 16 282 8.0 16.1 0.00 0.00 0.00 81 1008.9
20260505220020 16 287 11.3 17.7 0.00 0.00 0.00 81 1008.2
20260505215523 16 302 11.3 17.7 0.00 0.00 0.00 80 1008.9
20260505215025 16 299 14.5 24.1 0.00 0.00 0.00 80 1007.8
20260505214553 16 307 22.5 33.8 0.00 0.00 0.00 79 1008.5
20260505214527 16 307 17.7 29.0 0.00 0.00 0.00 79 1008.5
20260505214021 16 307 19.3 35.4 0.00 0.00 0.00 79 1007.5
20260505213558 16 308 22.5 30.6 0.00 0.00 0.00 78 1008.2
20260505213532 16 310 22.5 37.0 0.00 0.00 0.00 78 1008.2
20260505213034 16 309 22.5 51.5 0.00 0.00 0.00 79 1007.2
20260505212528 17 302 25.7 33.8 0.00 0.00 0.00 78 1007.8
20260505212520 17 302 27.4 35.4 0.00 0.00 0.00 78 1008.2
20260505212022 18 309 32.2 51.5 0.00 0.00 0.00 75 1007.2
20260505211545 21 282 25.7 35.4 0.00 0.00 0.00 61 1007.5
20260505211524 21 284 27.4 41.8 0.00 0.00 0.00 61 1007.8
20260505211044 21 281 35.4 49.9 0.00 0.00 0.00 60 1005.8
20260505210520 21 252 30.6 49.9 0.00 0.00 0.00 60 1006.8
20260505210032 21 260 29.0 43.5 0.00 0.00 0.00 61 1005.8
20260505205552 21 281 25.7 45.1 0.00 0.00 0.00 61 1006.5
20260505205019 21 261 29.0 41.8 0.00 0.00 0.00 62 1005.5
20260505204548 21 259 32.2 49.9 0.00 0.00 0.00 63 1006.5
20260505204522 21 253 29.0 49.9 0.00 0.00 0.00 63 1006.8
20260505204033 21 268 27.4 41.8 0.00 0.00 0.00 64 1005.5
20260505203716 21 271 25.7 35.4 0.00 0.00 0.00 65 1006.8
20260505203527 21 264 25.7 33.8 0.00 0.00 0.00 65 1006.5
20260505203020 20 251 22.5 35.4 0.00 0.00 0.00 67 1005.8
20260505202532 20 275 22.5 27.4 0.00 0.00 0.00 68 1006.8
20260505202523 20 266 29.0 37.0 0.00 0.00 0.00 68 1006.5
20260505202026 21 271 19.3 33.8 0.00 0.00 0.00 69 1005.8
20260505201554 20 266 17.7 22.5 0.00 0.00 0.00 70 1006.5
20260505201519 20 267 19.3 29.0 0.00 0.00 0.00 71 1006.8
20260505201022 20 274 19.3 32.2 0.00 0.00 0.00 72 1005.8
20260505200542 20 265 19.3 25.7 0.00 0.00 0.00 73 1006.8
20260505200524 20 272 17.7 27.4 0.00 0.00 0.00 73 1006.8
20260505200117 20 265 20.9 37.0 0.00 0.00 0.00 74 1005.8
20260505195602 19 277 20.9 33.8 0.00 0.00 0.00 75 1006.8
20260505195539 19 280 22.5 29.0 0.00 0.00 0.00 76 1006.8
20260505195032 19 263 17.7 30.6 0.00 0.00 0.00 77 1006.1
20260505194618 18 259 19.3 29.0 0.00 0.00 0.00 78 1007.2
20260505194552 18 257 19.3 25.7 0.00 0.00 0.00 78 1007.2
20260505194040 18 259 20.9 29.0 0.00 0.00 0.00 79 1006.5
20260505193522 18 273 17.7 29.0 0.00 0.00 0.00 80 1007.5
20260505193025 18 238 16.1 27.4 0.00 0.00 0.00 81 1006.5
20260505192628 18 268 16.1 24.1 0.00 0.00 0.00 82 1007.5
20260505192602 18 265 17.7 29.0 0.00 0.00 0.00 82 1007.5
20260505192041 17 267 16.1 24.1 0.00 0.00 0.00 84 1006.8
20260505191549 17 240 14.5 17.7 0.00 0.00 0.00 85 1007.5
20260505191523 17 244 11.3 19.3 0.00 0.00 0.00 85 1007.5
20260505191034 17 243 9.7 14.5 0.00 0.00 0.00 86 1006.8
20260505190621 17 242 8.0 8.0 0.00 0.00 0.00 87 1007.8
20260505190540 17 234 12.9 24.1 0.00 0.00 0.00 86 1008.2
20260505190043 17 249 11.3 19.3 0.00 0.00 0.00 87 1007.2
20260505185533 16 237 8.0 14.5 0.00 0.00 0.00 87 1008.2
20260505185524 16 212 8.0 8.0 0.00 0.00 0.00 87 1007.8
20260505185102 16 230 9.7 16.1 0.00 0.00 0.00 88 1007.2
20260505184538 16 249 4.8 8.0 0.00 0.00 0.00 91 1007.8
20260505184107 15 174 3.2 9.7 0.00 0.00 0.00 92 1007.2
20260505183526 15 196 3.2 8.0 0.00 0.00 0.00 92 1008.2
20260505183349 15 146 8.0 9.7 0.00 0.00 0.00 93 1008.2
20260505183028 15 160 3.2 9.7 0.00 0.00 0.00 93 1007.5
20260505182549 15 157 6.4 11.3 0.00 0.00 0.00 93 1008.2
20260505182025 15 175 4.8 8.0 0.00 0.00 0.00 94 1007.5
20260505181548 15 178 6.4 12.9 0.00 0.00 0.00 94 1008.5
20260505181021 14 169 4.8 8.0 0.00 0.00 0.00 93 1007.8
20260505180549 14 195 3.2 6.4 0.00 0.00 0.00 93 1008.9
20260505180103 14 218 1.6 4.8 0.00 0.00 0.00 93 1007.8
20260505175548 14 262 4.8 8.0 0.00 0.00 0.00 93 1008.9
20260505175537 14 277 4.8 4.8 0.00 0.00 0.00 93 1008.5
20260505175453 14 303 4.8 4.8 0.00 0.00 0.00 93 1008.5
20260505175025 13 313 6.4 9.7 0.00 0.00 0.00 94 1007.8
20260505174524 14 312 6.4 9.7 0.00 0.00 0.00 93 1008.9
20260505174047 14 323 6.4 9.7 0.00 0.00 0.00 93 1008.2
20260505173529 14 324 4.8 6.4 0.00 0.00 0.00 92 1008.9
20260505173521 14 331 6.4 11.3 0.00 0.00 0.00 92 1008.9
20260505173023 14 334 6.4 11.3 0.00 0.00 0.00 91 1007.8
20260505172644 14 339 3.2 6.4 0.00 0.00 0.00 91 1008.5
20260505172534 14 334 3.2 9.7 0.00 0.00 0.00 91 1008.9
20260505172106 15 344 3.2 8.0 0.00 0.00 0.00 90 1007.5
20260505171623 15 336 4.8 9.7 0.00 0.00 0.00 89 1008.5
20260505171530 15 335 3.2 4.8 0.00 0.00 0.00 88 1008.5
20260505171152 15 334 4.8 4.8 0.00 0.00 0.00 87 1008.5
20260505171033 15 344 3.2 4.8 0.00 0.00 0.00 87 1007.5
20260505170527 15 333 4.8 8.0 0.00 0.00 0.00 87 1008.5
20260505170020 15 338 3.2 6.4 0.00 0.00 0.00 87 1007.5
20260505165619 15 331 6.4 9.7 0.00 0.00 0.00 85 1008.5
20260505165532 15 324 4.8 9.7 0.00 0.00 0.00 86 1008.5
20260505165034 15 294 6.4 8.0 0.00 0.00 0.00 86 1007.5
20260505164528 15 298 8.0 14.5 0.00 0.00 0.00 85 1008.5
20260505164519 15 304 8.0 11.3 0.00 0.00 0.00 85 1008.9
20260505164022 15 294 8.0 12.9 0.00 0.00 0.00 83 1008.2
20260505163544 16 288 16.1 24.1 0.00 0.00 0.00 74 1008.9
20260505163533 16 272 12.9 24.1 0.00 0.00 0.00 76 1009.2
20260505163027 16 275 12.9 24.1 0.00 0.00 0.00 73 1008.2
20260505162605 17 262 16.1 20.9 0.00 0.00 0.00 73 1008.9
20260505162520 17 253 12.9 17.7 0.00 0.00 0.00 73 1008.9
20260505162023 17 245 14.5 24.1 0.00 0.00 0.00 73 1008.2
20260505161525 17 247 12.9 20.9 0.00 0.00 0.00 73 1009.2
20260505161112 17 240 9.7 16.1 0.00 0.00 0.00 74 1008.2
20260505160523 17 265 9.7 16.1 0.00 0.00 0.00 74 1009.2
20260505153031 18 234 22.5 35.4 0.00 0.00 0.00 69 1008.5
20260505152533 18 226 25.7 33.8 0.00 0.00 0.00 68 1009.2
20260505152057 18 243 24.1 35.4 0.00 0.00 0.00 66 1008.5
20260505151558 18 226 27.4 38.6 0.00 0.00 0.00 64 1009.2
20260505151521 18 232 24.1 48.3 0.00 0.00 0.00 64 1009.2
20260505151032 19 265 25.7 40.2 0.00 0.00 0.00 60 1008.5
20260505150552 18 271 25.7 41.8 0.00 0.00 0.00 59 1009.2
20260505150526 18 268 20.9 41.8 0.00 0.00 0.00 59 1009.6
20260505140529 17 29 1.6 6.4 0.00 0.00 0.00 60 1009.6
20260505140520 17 353 1.6 4.8 0.00 0.00 0.00 60 1009.6
20260505125024 13 73 3.2 8.0 0.00 0.00 0.00 67 1009.2
20260505124609 13 95 1.6 6.4 0.00 0.00 0.00 69 1009.9
20260505124534 13 100 3.2 6.4 0.00 0.00 0.00 69 1010.2
20260505124019 12 77 8.0 14.5 0.00 0.00 0.00 70 1009.2
20260505123623 12 89 6.4 8.0 0.00 0.00 0.00 71 1009.9
20260505123531 12 88 8.0 14.5 0.00 0.00 0.00 71 1010.2
20260505123024 12 91 8.0 12.9 0.00 0.00 0.00 72 1009.6
20260505122553 12 71 6.4 12.9 0.00 0.00 0.00 74 1010.2
20260505122518 12 75 6.4 11.3 0.00 0.00 0.00 74 1010.6
20260505122021 12 68 8.0 14.5 0.00 0.00 0.00 75 1009.6
20260505121532 11 68 8.0 9.7 0.00 0.00 0.00 75 1010.6
20260505121104 11 76 9.7 16.1 0.00 0.00 0.00 76 1009.6
20260505120603 11 91 11.3 12.9 0.00 0.00 0.00 76 1010.6
20260505120519 11 91 9.7 16.1 0.00 0.00 0.00 76 1010.6
20260505120022 11 62 8.0 11.3 0.00 0.00 0.00 78 1009.9
20260505115709 11 64 8.0 11.3 0.00 0.00 0.00 76 1010.6
20260505115542 11 67 8.0 12.9 0.00 0.00 0.00 77 1010.9
20260505115018 11 67 4.8 11.3 0.00 0.00 0.00 76 1009.9
20260505114648 11 76 9.7 12.9 0.00 0.00 0.00 75 1010.6
20260505114521 11 74 8.0 12.9 0.00 0.00 0.00 75 1010.9
20260505114033 12 79 8.0 8.0 0.00 0.00 0.00 74 1009.9
20260505113543 11 56 3.2 6.4 0.00 0.00 0.00 76 1010.6
20260505113525 11 65 3.2 6.4 0.00 0.00 0.00 76 1010.9
20260505113020 11 58 4.8 8.0 0.00 0.00 0.00 76 1009.9
20260505112557 11 76 3.2 4.8 0.00 0.00 0.00 77 1010.6
20260505112539 11 66 3.2 6.4 0.00 0.00 0.00 77 1010.9
20260505112056 10 82 8.0 14.5 0.00 0.00 0.00 78 1009.9
20260505111611 10 68 9.7 12.9 0.00 0.00 0.00 79 1010.6
20260505111556 10 64 9.7 11.3 0.00 0.00 0.00 79 1010.6
20260505111024 10 71 11.3 24.1 0.00 0.00 0.00 81 1009.9
20260505110540 9 83 11.3 16.1 0.00 0.00 0.00 82 1010.6
20260505110532 9 72 11.3 17.7 0.00 0.00 0.00 82 1010.6
20260505102137 7 131 4.8 9.7 0.00 0.00 0.00 87 1009.9
20260505101634 7 79 8.0 12.9 0.00 0.00 0.00 88 1010.6
20260505101522 7 85 8.0 12.9 0.00 0.00 0.00 88 1010.9
20260505101025 7 74 1.6 6.4 0.00 0.00 0.00 89 1009.9
20260505100555 6 80 6.4 8.0 0.00 0.00 0.00 89 1010.9
20260505100544 6 78 6.4 8.0 0.00 0.00 0.00 89 1010.9
20260505100021 6 74 3.2 6.4 0.00 0.00 0.00 89 1010.2
20260505095523 6 82 3.2 6.4 0.00 0.00 0.00 89 1010.9
20260505095025 6 81 3.2 6.4 0.00 0.00 0.00 89 1010.2
20260505094520 6 73 4.8 6.4 0.00 0.00 0.00 89 1011.3
20260505094031 6 111 4.8 6.4 0.00 0.00 0.00 89 1010.2
20260505093559 6 122 4.8 6.4 0.00 0.00 0.00 89 1011.3
20260505093533 6 115 4.8 6.4 0.00 0.00 0.00 89 1010.9
20260505093027 6 96 6.4 9.7 0.00 0.00 0.00 89 1010.2
20260505092547 6 108 3.2 6.4 0.00 0.00 0.00 89 1011.3
20260505092521 6 94 3.2 6.4 0.00 0.00 0.00 89 1011.3
20260505092041 6 84 4.8 9.7 0.00 0.00 0.00 89 1010.2
20260505091601 6 81 4.8 4.8 0.00 0.00 0.00 89 1010.9
20260505091534 6 72 4.8 6.4 0.00 0.00 0.00 89 1011.3
20260505091021 6 78 4.8 8.0 0.00 0.00 0.00 89 1010.2
20260505090742 6 74 6.4 8.0 0.00 0.00 0.00 89 1011.3
20260505090557 6 73 6.4 9.7 0.00 0.00 0.00 89 1011.3
20260505090029 6 76 3.2 6.4 0.00 0.00 0.00 89 1010.6
20260505085553 7 76 3.2 4.8 0.00 0.00 0.00 89 1011.3
20260505085527 7 77 1.6 4.8 0.00 0.00 0.00 89 1011.3
20260505085021 6 93 4.8 9.7 0.00 0.00 0.00 89 1010.2
20260505084524 6 62 3.2 6.4 0.00 0.00 0.00 89 1010.9
20260505084025 6 76 3.2 4.8 0.00 0.00 0.00 89 1010.2
20260505083537 6 126 3.2 4.8 0.00 0.00 0.00 89 1010.9
20260505083528 6 98 1.6 4.8 0.00 0.00 0.00 89 1011.3
20260505083022 6 95 3.2 6.4 0.00 0.00 0.00 89 1010.2
20260505082553 6 81 4.8 8.0 0.00 0.00 0.00 89 1011.3
20260505082533 6 79 4.8 8.0 0.00 0.00 0.00 89 1010.9
20260505082040 6 101 4.8 6.4 0.00 0.00 0.00 89 1010.2
20260505081555 6 81 4.8 4.8 0.00 0.00 0.00 89 1011.3
20260505081529 6 71 3.2 4.8 0.00 0.00 0.00 89 1011.3
20260505081023 6 79 3.2 6.4 0.00 0.00 0.00 89 1010.6
20260505080601 6 128 1.6 6.4 0.00 0.00 0.00 89 1011.6
20260505080554 6 129 1.6 3.2 0.00 0.00 0.00 89 1011.3
20260505080024 6 55 1.6 4.8 0.00 0.00 0.00 89 1010.6
20260505075614 6 67 1.6 3.2 0.00 0.00 0.00 89 1011.6
20260505075522 6 83 1.6 3.2 0.00 0.00 0.00 89 1011.6
20260505075025 6 66 1.6 4.8 0.00 0.00 0.00 89 1010.6
20260505074738 6 85 4.8 8.0 0.00 0.00 0.00 89 1011.6
20260505074553 6 99 4.8 6.4 0.00 0.00 0.00 89 1011.6
20260505074020 6 47 3.2 4.8 0.00 0.00 0.00 89 1010.6
20260505073541 6 84 6.4 11.3 0.00 0.00 0.00 89 1011.6
20260505073025 6 68 1.6 4.8 0.00 0.00 0.00 89 1010.9
20260505072537 7 92 1.6 3.2 0.00 0.00 0.00 89 1011.6
20260505072519 7 61 3.2 4.8 0.00 0.00 0.00 89 1011.6
20260505072022 7 56 1.6 4.8 0.00 0.00 0.00 89 1010.6
20260505071533 7 43 1.6 4.8 0.00 0.00 0.00 89 1011.6
20260505071053 7 43 1.6 4.8 0.00 0.00 0.00 89 1010.6
20260505070529 7 75 0.0 3.2 0.00 0.00 0.00 89 1011.6
20260505070107 7 68 3.2 6.4 0.00 0.00 0.00 89 1010.9
20260505065534 6 53 3.2 3.2 0.00 0.00 0.00 88 1011.6
20260505065525 6 65 3.2 4.8 0.00 0.00 0.00 88 1011.6
20260505065109 6 54 4.8 6.4 0.00 0.00 0.00 88 1010.9
20260505064548 6 57 3.2 4.8 0.00 0.00 0.00 88 1011.9
20260505064522 6 57 4.8 4.8 0.00 0.00 0.00 88 1011.9
20260505064024 6 94 1.6 4.8 0.00 0.00 0.00 87 1011.3
20260505063629 7 85 3.2 6.4 0.00 0.00 0.00 87 1011.9
20260505063104 7 69 6.4 11.3 0.00 0.00 0.00 86 1011.3
20260505062650 7 63 8.0 8.0 0.00 0.00 0.00 86 1011.9
20260505062523 7 67 6.4 11.3 0.00 0.00 0.00 86 1011.9
20260505062043 7 64 6.4 8.0 0.00 0.00 0.00 86 1011.3
20260505061647 7 70 3.2 4.8 0.00 0.00 0.00 86 1011.9
20260505061519 7 67 3.2 4.8 0.00 0.00 0.00 86 1012.3
20260505061042 7 64 4.8 8.0 0.00 0.00 0.00 86 1011.3
20260505060533 7 68 4.8 4.8 0.00 0.00 0.00 86 1012.3
20260505060027 7 61 4.8 9.7 0.00 0.00 0.00 86 1011.6
20260505055541 7 67 6.4 9.7 0.00 0.00 0.00 86 1012.6
20260505055043 7 62 8.0 12.9 0.00 0.00 0.00 85 1011.6
20260505054534 7 62 4.8 8.0 0.00 0.00 0.00 86 1012.6
20260505054525 7 69 4.8 6.4 0.00 0.00 0.00 86 1012.6
20260505054028 7 61 4.8 9.7 0.00 0.00 0.00 86 1011.9
20260505053640 7 65 8.0 9.7 0.00 0.00 0.00 87 1012.6
20260505053556 7 62 6.4 8.0 0.00 0.00 0.00 87 1013.0
20260505053025 7 59 4.8 6.4 0.00 0.00 0.00 86 1011.9
20260505052657 7 59 6.4 8.0 0.00 0.00 0.00 86 1012.6
20260505052535 7 62 6.4 9.7 0.00 0.00 0.00 86 1013.0
20260505052038 7 64 8.0 11.3 0.00 0.00 0.00 86 1011.9
20260505051532 7 59 4.8 4.8 0.00 0.00 0.00 86 1013.0
20260505051523 7 63 6.4 8.0 0.00 0.00 0.00 86 1013.0
20260505051025 7 64 6.4 8.0 0.00 0.00 0.00 86 1011.9
20260505050554 7 60 6.4 9.7 0.00 0.00 0.00 86 1013.0
20260505050539 7 62 6.4 9.7 0.00 0.00 0.00 86 1013.0
20260505041604 8 63 4.8 4.8 0.00 0.00 0.00 84 1013.3
20260505041536 8 68 4.8 9.7 0.00 0.00 0.00 84 1013.7
20260505041040 8 69 8.0 11.3 0.00 0.00 0.00 83 1012.6
20260505040531 8 82 6.4 8.0 0.00 0.00 0.00 84 1013.3
20260505040523 8 85 8.0 9.7 0.00 0.00 0.00 84 1013.7
20260505040034 8 81 6.4 11.3 0.00 0.00 0.00 84 1012.6
20260505035528 8 67 6.4 9.7 0.00 0.00 0.00 83 1013.7
20260505035519 8 68 6.4 6.4 0.00 0.00 0.00 83 1013.3
20260505035022 8 61 8.0 9.7 0.00 0.00 0.00 83 1012.6
20260505034634 8 66 4.8 6.4 0.00 0.00 0.00 83 1013.7
20260505034524 8 68 4.8 6.4 0.00 0.00 0.00 83 1013.7
20260505034225 8 81 3.2 4.8 0.00 0.00 0.00 83 1013.0
20260505033540 8 73 6.4 8.0 0.00 0.00 0.00 83 1013.7
20260505033538 8 70 6.4 8.0 0.00 0.00 0.00 83 1013.7
20260505033033 8 77 6.4 8.0 0.00 0.00 0.00 82 1012.6
20260505032543 8 74 6.4 8.0 0.00 0.00 0.00 82 1013.7
20260505032526 8 79 6.4 8.0 0.00 0.00 0.00 82 1013.7
20260505032019 8 94 4.8 9.7 0.00 0.00 0.00 81 1013.0
20260505031522 8 79 4.8 8.0 0.00 0.00 0.00 81 1013.7
20260505031044 8 75 6.4 9.7 0.00 0.00 0.00 81 1013.0
20260505030628 8 82 6.4 8.0 0.00 0.00 0.00 80 1014.0
20260505030526 8 82 6.4 8.0 0.00 0.00 0.00 80 1014.0
20260505030055 8 82 6.4 8.0 0.00 0.00 0.00 79 1013.3
20260505025540 8 87 4.8 8.0 0.00 0.00 0.00 79 1014.0
20260505025523 8 91 4.8 6.4 0.00 0.00 0.00 79 1014.0
20260505025030 8 93 6.4 9.7 0.00 0.00 0.00 79 1013.0
20260505024554 8 99 4.8 6.4 0.00 0.00 0.00 78 1014.0
20260505024545 8 105 6.4 8.0 0.00 0.00 0.00 78 1014.0
20260505024022 8 99 4.8 8.0 0.00 0.00 0.00 78 1013.0
20260505023634 8 79 8.0 9.7 0.00 0.00 0.00 78 1014.0
20260505023533 8 75 8.0 9.7 0.00 0.00 0.00 78 1014.0
20260505023026 8 76 6.4 9.7 0.00 0.00 0.00 78 1013.3
20260505022546 8 82 6.4 9.7 0.00 0.00 0.00 79 1014.0
20260505022520 8 78 6.4 9.7 0.00 0.00 0.00 79 1014.3
20260505022052 8 75 6.4 8.0 0.00 0.00 0.00 80 1013.3
20260505021551 8 68 4.8 6.4 0.00 0.00 0.00 82 1014.3
20260505021526 8 69 4.8 6.4 0.00 0.00 0.00 82 1014.0
20260505021045 8 64 4.8 6.4 0.00 0.00 0.00 82 1013.3
20260505020623 8 74 4.8 6.4 0.00 0.00 0.00 81 1014.3
20260505020559 8 73 4.8 6.4 0.00 0.00 0.00 81 1014.3
20260505020024 8 78 6.4 6.4 0.00 0.00 0.00 81 1013.3
20260505015546 8 102 4.8 6.4 0.00 0.00 0.00 82 1014.3
20260505015020 8 80 6.4 8.0 0.00 0.00 0.00 81 1013.7
20260505014552 8 106 4.8 6.4 0.00 0.00 0.00 81 1014.3
20260505014523 8 100 4.8 6.4 0.00 0.00 0.00 81 1014.7
20260505014051 8 95 3.2 4.8 0.00 0.00 0.00 81 1013.7
20260505013554 8 78 3.2 4.8 0.00 0.00 0.00 80 1014.7
20260505013519 8 70 3.2 4.8 0.00 0.00 0.00 81 1014.3
20260505013043 8 83 4.8 4.8 0.00 0.00 0.00 81 1013.7
20260505012542 8 91 3.2 4.8 0.00 0.00 0.00 80 1014.7
20260505012525 8 80 4.8 6.4 0.00 0.00 0.00 80 1014.3
20260505012112 8 75 4.8 6.4 0.00 0.00 0.00 80 1013.7
20260505011520 8 66 4.8 4.8 0.00 0.00 0.00 80 1014.7
20260505011023 8 69 4.8 6.4 0.00 0.00 0.00 80 1013.7
20260505010829 8 70 6.4 8.0 0.00 0.00 0.00 79 1014.3
20260505010525 8 72 6.4 8.0 0.00 0.00 0.00 79 1014.7
20260505010046 8 74 6.4 6.4 0.00 0.00 0.00 78 1013.7
20260505005521 8 79 6.4 8.0 0.00 0.00 0.00 77 1014.3
20260505005059 9 81 1.6 3.2 0.00 0.00 0.00 76 1013.7
20260505004639 9 293 0.0 3.2 0.00 0.00 0.00 76 1014.3
20260505004602 9 281 0.0 3.2 0.00 0.00 0.00 76 1014.7
20260505004020 9 231 1.6 4.8 0.00 0.00 0.00 76 1013.7
20260505003540 8 206 3.2 4.8 0.00 0.00 0.00 76 1014.3
20260505003531 8 227 3.2 6.4 0.00 0.00 0.00 76 1014.3
20260505003127 8 160 3.2 9.7 0.00 0.00 0.00 76 1013.3